Regional Weather Roundup
Issued by NWS

Home | Current Version | Previous Version | Graphics & Text | Print | Product List | Glossary On
Versions: 1 2 3 4 5 6 7 8 9 10 11 12 13 14 15 16 17 18 19 20 21 22 23 24 25 26 27 28 29 30 31 32 33 34 35 36 37 38 39 40 41 42 43 44 45 46 47 48 49 50
000
ASUS43 KLOT 271508
RWRIL

ILLINOIS REGIONAL WEATHER ROUNDUP
NATIONAL WEATHER SERVICE CHICAGO/ROMEOVILLE IL
1000 AM CDT THU AUG 27 2015

NOTE: "FAIR" INDICATES FEW OR NO CLOUDS BELOW 12,000 FEET WITH NO
SIGNIFICANT WEATHER AND/OR OBSTRUCTIONS TO VISIBILITY.

* THESE STATIONS ARE NOT UNDER NWS QUALITY CONTROL. THEY ALSO MAY NOT
  REPORT WEATHER SUCH AS PRECIPITATION OR FOG.

ILZ001-002-007-009-015-016-024-271600-
NORTHWEST ILLINOIS

CITY           SKY/WX    TMP DP  RH WIND       PRES   REMARKS
MOLINE         SUNNY     66  57  72 S7        30.17F
STERLING*      SUNNY     66  57  72 SW3       30.18S
SAVANNA*       SUNNY     67  56  66 S3        30.18F
$$

ILZ003-004-008-010-011-017-018-271600-
NORTH CENTRAL ILLINOIS

CITY           SKY/WX    TMP DP  RH WIND       PRES   REMARKS
ROCKFORD       MOSUNNY   65  56  72 S5        30.21R
FREEPORT*      SUNNY     64  56  75 SW5       30.21S
ROCHELLE*      SUNNY     64  56  75 S5        30.21S
DE KALB*       SUNNY     64  55  72 S7        30.22R
PERU*          SUNNY     65  53  66 SE7       30.20S
$$

ILZ005-006-012>014-019>023-271600-
NORTHEAST ILLINOIS

CITY           SKY/WX    TMP DP  RH WIND       PRES   REMARKS
CHICAGO-OHARE  MOSUNNY   65  52  62 SE5       30.20F
CHICAGO-MIDWAY PTSUNNY   68  53  58 CALM      30.20F
AURORA         SUNNY     64  55  72 S7        30.22R
LANSING*       CLOUDY    64  54  69 CALM      30.21S
JOLIET*        PTSUNNY   66  57  72 SE7       30.21S
WAUKEGAN       SUNNY     65  53  65 SE7       30.19F
DUPAGE AIRPORT SUNNY     65  54  67 S6        30.20S
KANKAKEE*      PTSUNNY   65  56  73 NE7       30.21S
WHEELING       SUNNY     66  52  60 VRB5      30.22S
MORRIS*        SUNNY     64  57  78 E6        30.20S
ROMEOVILLE*    CLOUDY    64  53  69 CALM      30.21F
NORTHERLY ISL    N/A     63  54  72 E2          N/A
$$

LMZ740>746-271600-
SOUTHERN LAKE MICHIGAN

STATION/POSITION SKY/WX   TEMP    WIND        PRES    VSBY  WAVE
                          AIR SEA DIR/SP/G                  HT/PER
                          (F)     (DEG/KT/KT) (MB)    (MI)  (FT/S)
SOUTHERN BUOY              64 67  140/  6/  6 1022.3F         0
WILMETTE HARBOR            61 58                N/A
HARRISON CRIB              61     330/  2/  2   N/A
BURNHAM HARBOR             64     110/  2/  5   N/A
BURNS HARBOR               63     190/  5/  5 1023.7F
MICHIGAN CITY              62     140/  5/  6   N/A
MICHIGAN CITY 6N           64 70  170/  8/ 10   N/A           1/ 2
ST. JOSEPH                 63 70  170/  6/  8   N/A           1
$$

ILZ025>027-034>036-040-047-049-050-058-095>099-271600-
WEST-CENTRAL ILLINOIS

CITY           SKY/WX    TMP DP  RH WIND       PRES   REMARKS
QUINCY         MOSUNNY   67  56  67 SE10      30.16F
GALESBURG*     SUNNY     64  57  80 S6        30.19S
MACOMB*        SUNNY     64  58  81 S5        30.21R
JACKSONVILLE*  SUNNY     68  59  72 CALM      30.18S
PITTSFIELD*    SUNNY     67  58  72 E6        30.18F
$$

ILZ028>032-037-038-041>044-048-051>054-059>061-271600-
CENTRAL ILLINOIS

CITY           SKY/WX    TMP DP  RH WIND       PRES   REMARKS
PONTIAC        MOSUNNY   66  58  76 E7        30.20F
BLOOMINGTON    SUNNY     66  56  70 E8        30.20F
DECATUR        SUNNY     67  57  70 E6        30.19R
PEORIA         SUNNY     67  54  63 VRB3      30.19S
LACON*         SUNNY     65  55  70 SE5       30.19S
LINCOLN*       SUNNY     68  55  61 NE6       30.19F
SPRINGFIELD    SUNNY     68  56  65 E7        30.18F
TAYLORVILLE    SUNNY     64  57  77 E7        30.18S
$$

ILZ033-039-045-046-055>057-062-063-271600-
EAST-CENTRAL ILLINOIS

CITY           SKY/WX    TMP DP  RH WIND       PRES   REMARKS
CHAMPAIGN      SUNNY     67  59  75 E7        30.19F
RANTOUL*       SUNNY     68  59  73 E9        30.19S
MATTOON        SUNNY     67  57  70 SE8       30.16F
PARIS*         SUNNY     67  61  81 E6        30.19F
$$

ILZ079-100>102-271600-
SOUTHWEST ILLINOIS

CITY           SKY/WX    TMP DP  RH WIND       PRES   REMARKS
ALTON          SUNNY     66  59  77 E6        30.17F
BELLEVILLE     SUNNY     67  61  83 CALM      30.16S
CAHOKIA*       SUNNY     68  57  68 CALM      30.17F
SPARTA*        SUNNY     67  59  76 CALM      30.16F
$$

ILZ064>066-069>071-074>076-080>082-084>086-088>090-092>094-271600-
SOUTH-CENTRAL ILLINOIS

CITY           SKY/WX    TMP DP  RH WIND       PRES   REMARKS
CARBONDALE     SUNNY     69  60  73 E5        30.16F
CAIRO*         SUNNY     71  65  82 E7        30.15S
EFFINGHAM*     SUNNY     68  58  70 E7        30.18F
MARION         SUNNY     72  61  68 SE5       30.17F
MT. VERNON     SUNNY     70  57  64 E3        30.16F
CENTRALIA*     SUNNY    N/A N/A N/A MISG      30.15F
SALEM*         SUNNY     68  58  71 SE5       30.15F
METROPOLIS*    SUNNY     73  64  74 CALM      30.16F
$$

ILZ067-068-072-073-078-083-087-091-271600-
SOUTHEAST ILLINOIS

CITY           SKY/WX    TMP DP  RH WIND       PRES   REMARKS
LAWRENCEVILLE  SUNNY     70  60  70 CALM      30.18F
FLORA*         SUNNY     66  58  76 E3        30.17F
FAIRFIELD*     SUNNY     67  60  77 CALM      30.16F
HARRISBURG*    SUNNY     70  62  74 CALM      30.17S
ROBINSON*      SUNNY     68  60  75 CALM      30.19F
CARMI*         SUNNY     72  59  64 CALM      30.17F
$$

ABBREVIATIONS USED IN REMARKS
   TC - TEMPERATURE IN CELSIUS
  WCI - WIND CHILL INDEX
   HX - HEAT INDEX
  VSB - VISIBILITY
$$



USA.gov is the U.S. government's official web portal to all federal, state and local government web resources and services.